SCP
0 0 0 0 0 0 0 0 0 0 0 0 0 0 0 0 0 0 0 0 0 0 0 0 0 0 0 0 0 0 0 0 0 0 0 0 0 0 0 0 0 0 0 0
0 0 0 0 0 0 0 0 0 0 0 0 0 0 0 0 0 0 0 0 0 0 0 0 0 0 0 0 0 0 0 0 0 0 0 0 0 0 0 0 0 0 0 0
0 0 0 0 0 0 0 0 0 0 0 0 0 0 0 0 0 0 0 0 0 0 0 0 0 0 0 0 0 0 0 0 0 0 0 0 0 0 0 0 0 0 0 0
0 0 0 0 0 0 0 0 0 0 0 0 0 0 0 0 0 0 0 0 0 0 0 0 0 0 0 0 0 0 0 0 0 0 0 0 0 0 0 0 0 0 0 0
0 0 0 0 0 0 0 0 0 0 0 0 0 0 0 0 0 0 0 0 0 0 0 0 0 0 0 0 0 0 0 0 0 0 0 0 0 0 0 0 0 0 0 0
0 0 0 0 0 0 0 0 0 0 0 0 0 0 0 0 0 0 0 0 0 0 0 0 0 0 0 0 0 0 0 0 0 0 0 0 0 0 0 0 0 0 0 0
0 0 0 0 0 0 0 0 0 0 0 0 0 0 0 0 0 0 0 0 0 0 0 0 0 0 0 0 0 0 0 0 0 0 0 0 0 0 0 0 0 0 0 0
0 0 0 0 0 0 0 0 0 0 0 0 0 0 0 0 0 0 0 0 0 0 0 0 0 0 0 0 0 0 0 0 0 0 0 0 0 0 0 0 0 0 0 0
0 0 0 0 0 0 0 0 0 0 0 0 0 0 0 0 0 0 0 0 0 0 0 0 0 0 0 0 0 0 0 0 0 0 0 0 0 0 0 0 0 0 0 0
0 0 0 0 0 0 0 0 0 0 0 0 0 0 0 0 0 0 0 0 0 0 0 0 0 0 0 0 0 0 0 0 0 0 0 0 0 0 0 0 0 0 0 0
0 0 0 0 0 0 0 0 0 0 0 0 0 0 0 0 0 0 0 0 0 0 0 0 0 0 0 0 0 0 0 0 0 0 0 0 0 0 0 0 0 0 0 0
0 0 0 0 0 0 0 0 0 0 0 0 0 0 0 0 0 0 0 0 0 0 0 0 0 0 0 0 0 0 0 0 0 0 0 0 0 0 0 0 0 0 0 0
0 0 0 0 0 0 0 0 0 0 0 0 0 0 0 0 0 0 0 0 0 0 0 0 0 0 0 0 0 0 0 0 0 0 0 0 0 0 0 0 0 0 0 0
0 0 0 0 0 0 0 0 0 0 0 0 0 0 0 0 0 0 0 0 0 0 0 0 0 0 0 0 0 0 0 0 0 0 0 0 0 0 0 0 0 0 0 0
0 0 0 0 0 0 0 0 0 0 0 0 0 0 0 0 0 0 0 0 0 0 0 0 0 0 0 0 0 0 0 0 0 0 0 0 0 0 0 0 0 0 0 0
0 0 0 0 0 0 0 0 0 0 0 0 0 0 0 0 0 0 0 0 0 0 0 0 0 0 0 0 0 0 0 0 0 0 0 0 0 0 0 0 0 0 0 0
0 0 0 0 0 0 0 0 0 0 0 0 0 0 0 0 0 0 0 0 0 0 0 0 0 0 0 0 0 0 0 0 0 0 0 0 0 0 0 0 0 0 0 0
0 0 0 0 0 0 0 0 0 0 0 0 0 0 0 0 0 0 0 0 0 0 0 0 0 0 0 0 0 0 0 0 0 0 0 0 0 0 0 0 0 0 0 0
0 0 0 0 0 0 0 0 0 0 0 0 0 0 0 0 0 0 0 0 0 0 0 0 0 0 0 0 0 0 0 0 0 0 0 0 0 0 0 0 0 0 0 0
0 0 0 0 0 0 0 0 0 0 0 0 0 0 0 0 0 0 0 0 0 0 0 0 0 0 0 0 0 0 0 0 0 0 0 0 0 0 0 0 0 0 0 0
0 0 0 0 0 0 0 0 0 0 0 0 0 0 0 0 0 0 0 0 0 0 0 0 0 0 0 0 0 0 0 0 0 0 0 0 0 0 0 0 0 0 0 0
0 0 0 0 0 0 0 0 0 0 0 0 0 0 0 0 0 0 0 0 0 0 0 0 0 0 0 0 0 0 0 0 0 0 0 0 0 0 0 0 0 0 0 0
0 0 0 0 0 0 0 0 0 0 0 0 0 0 0 0 0 0 0 0 0 0 0 0 0 0 0 0 0 0 0 0 0 0 0 0 0 0 0 0 0 0 0 0
0 0 0 0 0 0 0 0 0 0 0 0 0 0 0 0 0 0 0 0 0 0 0 0 0 0 0 0 0 0 0 0 0 0 0 0 0 0 0 0 0 0 0 0
0 0 0 0 0 0 0 0 0 0 0 0 0 0 0 0 0 0 0 0 0 0 0 0 0 0 0 0 0 0 0 0 0 0 0 0 0 0 0 0 0 0 0 0
0 0 0 0 0 0 0 0 0 0 0 0 0 0 0 0 0 0 0 0 0 0 0 0 0 0 0 0 0 0 0 0 0 0 0 0 0 0 0 0 0 0 0 0
Wind_Speed
1 3 4 5 6 5 5 6 8 6 3 5 9 11 10 6 6 7 7 6 5 6 4 3 3 3 4 3 4 4 4 3 3 3 4 4 4 3 3 3 4 5 5 6
2 5 6 5 5 6 6 7 8 6 3 6 8 11 10 7 8 8 7 7 6 5 4 3 3 3 3 3 3 4 4 4 4 4 3 3 3 3 3 3 4 4 5 5
5 2 3 4 5 6 8 8 8 6 5 4 7 9 7 5 5 6 7 7 6 5 4 4 3 3 3 3 3 3 4 4 4 4 3 3 3 3 3 3 3 4 5 5
4 4 3 5 6 7 8 6 7 6 6 3 4 7 5 4 5 6 6 5 5 4 4 3 3 3 3 3 3 3 3 3 4 4 5 6 5 4 3 3 3 4 5 5
3 3 4 6 6 6 5 4 5 6 6 5 5 6 6 2 5 6 4 3 3 3 3 3 3 3 3 2 2 2 2 3 3 4 5 6 5 3 3 3 4 3 3 4
3 3 4 4 4 4 2 1 2 3 4 7 7 8 7 4 6 4 3 3 4 4 3 3 2 2 1 1 1 1 2 2 3 4 5 5 5 5 5 4 4 3 2 2
3 3 2 2 2 2 1 2 3 4 5 6 2 6 8 4 4 5 4 4 4 3 3 2 2 2 1 1 1 1 2 2 2 3 4 4 5 5 6 5 4 3 2 2
4 4 3 3 4 4 5 5 4 5 5 3 3 7 4 3 4 4 4 3 2 2 2 2 2 2 1 1 1 1 2 2 2 3 3 4 4 3 3 4 3 3 2 2
4 4 2 3 3 4 4 5 4 3 3 5 6 6 6 3 3 3 3 3 2 2 2 2 2 2 2 1 1 2 2 2 3 3 3 3 3 3 3 3 2 2 2 2
3 4 3 2 2 2 4 3 3 4 5 6 6 7 5 4 4 3 3 3 3 2 2 2 2 2 2 2 1 1 1 1 2 2 2 2 3 3 3 3 3 2 2 2
3 4 3 3 5 5 4 4 4 4 4 5 6 4 1 3 3 3 3 2 2 3 3 3 2 2 2 1 1 0 0 1 1 1 2 2 2 3 3 3 2 2 2 2
2 3 4 5 2 4 6 6 7 5 5 5 6 6 2 1 2 3 3 3 3 3 3 3 3 2 1 1 1 1 1 1 1 1 1 2 2 3 3 2 2 2 2 2
2 3 3 3 3 3 5 5 6 4 4 6 7 6 1 1 3 4 4 4 3 4 4 3 3 2 2 1 1 1 1 1 1 1 1 1 2 2 2 2 2 2 2 2
1 3 6 7 5 3 6 7 7 7 6 8 11 12 8 7 7 7 6 5 4 4 4 3 3 3 2 2 1 1 1 1 1 1 1 1 1 1 1 2 2 2 2 3
2 4 5 8 8 7 9 10 9 11 12 11 11 12 12 9 8 7 6 5 4 4 4 4 4 3 3 2 1 1 1 1 0 1 1 0 0 0 1 1 2 2 2 2
2 3 3 7 6 7 9 11 12 12 13 14 14 15 10 8 7 6 5 5 5 5 5 5 4 4 3 3 2 2 1 1 0 0 0 0 0 1 1 1 2 2 2 2
4 3 4 5 4 5 9 10 11 10 10 10 13 12 8 7 7 7 6 5 5 6 6 5 5 4 4 4 3 3 2 2 1 1 1 1 1 1 2 2 2 2 2 3
5 4 3 3 3 9 4 1 6 9 10 10 11 10 8 8 7 7 5 5 6 6 6 6 5 5 4 4 4 3 2 2 2 2 2 2 2 2 2 2 2 3 3 3
6 5 3 3 6 9 6 3 4 6 8 7 10 9 8 6 6 5 3 3 5 6 6 6 6 5 4 4 3 3 3 3 3 3 3 3 3 3 3 3 3 3 3 3
3 4 4 5 6 7 3 1 1 3 7 3 6 7 6 5 6 4 3 5 6 6 5 5 5 4 4 3 3 3 3 4 4 4 4 4 4 4 4 4 4 3 3 4
4 5 7 7 8 8 4 1 3 5 4 3 4 6 6 7 8 6 6 6 6 5 5 5 4 4 3 3 3 4 4 4 4 4 4 4 4 4 4 4 4 4 3 4
7 6 7 6 8 8 2 4 5 5 4 4 6 6 7 8 8 7 6 6 5 5 5 4 4 4 3 3 4 4 4 4 4 4 4 4 4 4 3 4 4 4 4 4
7 6 4 7 7 3 3 5 5 4 6 7 7 7 7 7 7 7 6 6 5 5 5 4 4 4 4 3 4 4 4 4 3 4 4 4 4 4 4 4 4 3 4 3
5 4 5 7 9 7 7 7 7 7 8 8 8 7 7 7 7 7 6 5 5 5 5 4 4 4 4 4 4 4 4 3 4 4 4 3 3 3 3 3 3 3 4 4
6 5 6 8 9 8 8 8 8 8 8 7 6 6 7 7 7 6 6 5 5 5 5 4 4 4 4 4 4 3 3 3 4 4 4 4 3 3 3 3 3 4 4 4
6 8 8 9 7 7 7 6 7 8 8 7 6 7 7 6 6 6 5 5 5 5 4 4 4 4 4 4 4 4 3 3 4 4 4 3 3 3 3 3 3 4 5 5
Wind_Direction
176 214 225 226 232 260 263 255 258 260 272 261 258 269 277 275 262 257 257 257 256 256 261 272 275 265 244 225 224 220 207 204 198 192 190 189 188 182 179 190 184 180 179 180
201 239 254 256 246 248 252 256 264 271 278 265 273 274 273 259 251 252 258 258 256 258 264 267 269 270 253 235 223 221 212 202 200 199 197 198 183 179 175 176 181 181 181 182
232 280 260 237 237 241 246 252 259 271 292 261 282 274 253 249 251 257 258 258 259 259 268 277 271 272 273 249 235 226 217 209 203 194 181 172 169 171 175 178 183 184 186 181
245 266 255 239 247 250 254 259 257 260 264 259 267 280 265 242 251 258 260 255 260 263 268 280 281 278 277 268 252 231 218 209 199 189 187 182 185 185 185 181 181 180 186 182
244 256 251 249 261 256 263 275 250 248 249 263 240 256 272 256 260 265 263 265 276 275 272 273 275 273 282 281 263 245 217 206 194 190 190 193 191 183 171 170 169 171 176 182
266 270 265 266 273 254 257 226 220 235 236 248 239 235 270 242 257 270 274 280 291 289 279 270 271 270 281 284 263 242 216 202 192 185 188 192 185 180 173 174 170 174 173 177
260 249 252 261 270 232 237 221 218 213 220 244 210 232 258 275 273 274 285 293 295 294 286 280 278 268 276 277 275 227 214 197 195 187 183 188 188 184 183 179 175 178 181 186
241 257 230 235 238 229 219 229 240 250 251 245 208 239 255 318 314 307 301 303 308 299 291 287 284 276 266 258 250 235 209 192 195 194 187 188 190 186 186 188 180 186 187 185
239 262 297 260 257 228 206 221 256 268 277 261 239 254 269 266 295 314 319 323 324 315 311 312 310 300 297 277 262 236 221 199 194 197 189 183 181 179 183 184 181 177 172 171
240 267 280 277 220 224 253 201 196 222 247 253 254 252 252 245 270 302 322 328 333 335 333 338 329 318 316 305 275 248 228 211 189 182 184 176 170 176 176 170 171 169 159 162
240 241 251 223 220 216 191 201 218 226 253 259 263 258 259 250 273 279 298 316 326 333 330 332 332 320 319 329 332 279 187 138 133 149 160 162 162 165 161 159 163 155 145 158
223 242 252 243 250 278 232 221 210 226 229 239 262 267 68 275 312 313 319 326 330 331 323 326 329 333 341 359 4 35 72 98 107 132 142 146 155 156 152 149 153 150 143 155
184 206 259 244 205 202 233 227 221 232 242 234 244 258 103 309 320 327 324 323 325 327 328 331 334 330 339 355 5 22 64 81 94 117 122 126 146 153 156 152 151 150 154 170
211 217 233 256 284 249 249 243 226 215 232 243 247 267 279 294 307 312 314 319 323 323 321 324 325 322 324 331 341 345 22 56 79 89 90 99 125 154 163 155 159 170 178 186
214 239 247 270 278 261 257 252 237 229 234 244 258 264 276 290 297 299 297 301 306 308 310 308 308 311 310 314 324 325 336 15 71 100 87 65 342 193 157 163 172 179 191 199
219 236 249 268 265 262 259 258 246 241 243 248 262 269 279 289 291 291 291 291 294 297 299 298 298 299 298 300 301 295 302 296 279 170 220 266 273 223 189 184 182 185 201 207
202 196 234 261 287 276 258 247 234 235 237 238 249 262 286 289 290 289 285 283 292 297 295 292 288 283 283 280 271 261 260 258 244 238 250 255 242 239 220 205 195 202 214 213
198 199 226 259 255 244 262 277 235 236 247 242 252 269 278 282 291 289 276 276 293 301 297 294 289 284 281 274 267 258 246 240 233 235 244 252 243 242 234 218 213 218 222 222
210 196 209 230 250 268 276 254 223 236 262 253 252 268 288 304 293 273 267 279 291 292 293 294 291 282 273 265 258 243 234 234 234 237 243 245 238 236 235 230 230 229 227 229
185 202 215 227 248 254 280 347 219 231 264 266 259 271 286 294 277 293 319 299 299 298 295 293 292 284 271 265 249 230 233 236 240 242 243 242 236 233 235 238 237 235 230 231
182 200 217 230 248 263 279 229 188 233 283 325 283 276 273 271 281 303 303 295 292 295 294 294 287 281 274 268 243 232 236 245 253 248 239 236 234 234 234 237 237 232 229 229
204 204 210 214 232 251 167 174 218 269 313 298 294 288 278 279 288 292 294 293 295 298 294 293 286 285 284 268 248 244 248 258 259 245 234 234 236 236 232 231 232 229 225 226
222 221 218 220 239 293 214 235 260 280 281 286 288 290 284 279 281 286 290 291 292 292 289 286 280 281 284 274 255 249 256 259 251 241 235 236 239 239 234 231 231 229 226 227
232 236 238 254 257 264 263 266 271 274 277 282 282 282 276 273 276 278 280 283 286 287 284 282 276 274 281 282 272 261 259 255 243 237 237 237 236 237 236 232 229 228 227 228
236 210 232 253 269 282 266 260 270 279 282 283 284 281 275 272 271 270 274 276 277 281 281 276 271 271 277 280 274 271 261 242 239 239 237 237 236 238 238 238 237 236 238 240
218 214 222 245 254 257 276 286 284 279 278 279 284 287 283 272 267 268 271 273 275 276 277 273 271 270 272 272 271 269 263 244 236 236 236 235 232 232 234 237 246 250 248 256